Location: Riverside
(39.1734°N, 77.8561°W)
Time: 00:38:48
(UTC+00:00)

BEESAT 3 - Pass Details

Date: 03 June 2019
Orbit: 484 x 526 km, 64.9° (Epoch: 16 June)

Event Time Altitude Azimuth Distance (km) Brightness Sun altitude
Rises 04:25:54 0° 315° (NW) 2,663 ? -27.7°
Reaches altitude 10° 04:28:25 10° 300° (WNW) 1,770 ? -27.8°
Enters shadow 04:29:38 16° 286° (WNW) 1,421 ? -27.8°
